Regional Weather Roundup
Issued by NWS Grand Forks, ND

Home | Current Version | Previous Version | Graphics & Text | Print | Product List | Glossary On
Versions: 1 2 3 4 5 6 7 8 9 10 11 12 13 14 15 16 17 18 19 20 21 22 23 24 25 26 27 28 29 30 31 32 33 34 35 36 37 38 39 40 41 42 43 44 45 46 47 48 49 50
000
ASUS43 KFGF 312310
RWRFGF
PRAIRIE TO PINES  WEATHER ROUNDUP
NATIONAL WEATHER SERVICE EASTERN NORTH DAKOTA/GRAND FORKS ND
600 PM CDT THU JUL 31 2014

 **SATELLITE DATA USED TO AUGMENT SKY COVER AT AUTOMATED STATIONS**
 *****  WEATHER ACROSS EASTERN NORTH DAKOTA  *****

CITY           SKY/WX    TMP DP  RH WIND       PRES   REMARKS
GRAND FORKS    MOSUNNY   83  61  47 NW5       29.99F
GRAND FRKS AFB PTSUNNY   78  65  63 N5        30.01S
GRAND FRKS NWS   N/A     82 N/A N/A N7          N/A
DEVILS LAKE    SUNNY     81  55  41 N9        30.03F
FARGO          SUNNY     83  58  42 N5        30.00F
WAHPETON ARPT  MOCLDY    81  52  36 N8        30.01F
$$

 ***** WEATHER ACROSS CENTRAL AND WESTERN NORTH DAKOTA  *****

CITY           SKY/WX    TMP DP  RH WIND       PRES   REMARKS
BISMARCK       SUNNY     86  49  27 E5        30.05F
MINOT          SUNNY     81  53  37 S6        30.05S
JAMESTOWN      SUNNY     82  57  42 N3        30.04F
MINOT AFB      SUNNY     81  55  41 CALM      30.04F
GARRISON         N/A     81  55  40 CALM      30.06F
WILLISTON      SUNNY     90  54  29 E10       30.00F
DICKINSON      SUNNY     86  54  33 SE10      30.04F
HETTINGER      SUNNY     87  51  28 MISG      30.08F
$$

 *****  OTHER AIRPORT OBSERVATIONS IN OUR AREA  *****

CITY           SKY/WX    TMP DP  RH WIND       PRES   REMARKS
WALHALLA       FAIR      81  63  54 N6          N/A
GRAFTON AIRPOR FAIR      81  61  50 N6        30.00S
VALLEY CITY AR FAIR      82  54  36 NW8       30.04S
CANDO          FAIR      81  57  44 NW5       30.05S
CAVALIER APRT  FAIR      81  63  54 NW7       30.00F
GWINNER        CLEAR     81  57  44 N3        30.05S
SHEYENNE NWR     N/A     84  56  37 NW6       29.95S
ROLLA            N/A     77  55  47 N6        30.07F
 ***** THE ABOVE OBSERVATIONS ARE NON NWS ARE NOT QUALITY
       CONTROLLED AND MAY MIS-REPORT RAIN FOR SNOW...
$$

  *****  WEATHER ACROSS NORTHERN MINNESOTA  *****

CITY           SKY/WX    TMP DP  RH WIND       PRES   REMARKS
FLAG ISLAND    SUNNY     79  54  41 N3        29.98S
WARROAD        SUNNY     79  57  47 NW8       30.00S
ROSEAU           N/A     79  61  53 W6        30.00S
HALLOCK        SUNNY     81  61  50 N7        30.00S
THF RVR FALLS  SUNNY     79  59  50 NW10      30.01F
BAUDETTE       SUNNY     78  55  44 N6        30.01S
WASKISH        SUNNY     79  55  44 CALM      30.01S
CROOKSTON      SUNNY     81  63  54 NW8       30.01S
$$
  *****  WEATHER ACROSS CENTRAL AND WEST MINNESOTA  *****

CITY           SKY/WX    TMP DP  RH WIND       PRES   REMARKS
FOSSTON        SUNNY     79  57  47 W5        30.03S
BEMIDJI        SUNNY     77  57  49 N8        30.01S
PARK RAPIDS    SUNNY     79  56  45 NW14      30.01F
ELBOW LAKE     FAIR      78  60  54 NW6       30.02F
WADENA         SUNNY     79  59  50 W7        30.02S
DETROIT LAKES  SUNNY     79  55  44 NW7       30.04F
MOORHEAD       SUNNY     81  59  47 NE5       30.02S
FERGUS FALLS   PTSUNNY   79  57  47 N8        30.01S
MORRIS MN      SUNNY     81  57  44 NW5       30.02F
STAPLES        SUNNY     79  55  44 NW9       30.01F
$$
  *****  WEATHER ELSEWHERE ACROSS MINNESOTA  *****

CITY           SKY/WX    TMP DP  RH WIND       PRES   REMARKS
DULUTH         SUNNY     79  53  40 NW8       29.97F
INTRNTL FALLS  SUNNY     76  55  48 NW5       29.99S
ELY            SUNNY     73  48  40 NW5       29.99R
CLOQUET        SUNNY     79  54  41 NW9       29.98S
WHEATON        SUNNY     79  57  47 CALM      30.04F
BRAINERD       SUNNY     79  58  48 NW7       30.00S
HIBBING        MOSUNNY   78  54  43 N9        29.99S
ALEXANDRIA     SUNNY     80  56  43 NW10      30.04F
SAINT CLOUD    SUNNY     84  54  35 W6        30.00S
MINNEAPOLIS    MOSUNNY   82  53  36 W7        29.99F
$$

  *****  WEATHER ACROSS SOUTH DAKOTA  *****

CITY           SKY/WX    TMP DP  RH WIND       PRES   REMARKS
SIOUX FALLS    TSTM      73  62  68 W7        30.05S
BROOKINGS      NOT AVBL
WATERTOWN      SUNNY     79  53  40 NW6       30.06S
HURON          SUNNY     82  53  36 N9        30.03F
SISSETON         N/A     81  58  45 NE5       30.02F
ABERDEEN       SUNNY     80  52  37 N8        30.04F
MITCHELL       SUNNY     82  59  45 CALM      30.04S
PIERRE         SUNNY     87  52  29 N13       30.02F
MOBRIDGE       SUNNY     86  53  32 N8        30.03S
RAPID CITY     MOSUNNY   88  47  24 MISG      30.11F
$$

  *****  SOME WEATHER IN NEARBY STATES *****

CITY           SKY/WX    TMP DP  RH WIND       PRES   REMARKS
GLASGOW MT     MOSUNNY   95  40  14 E18       29.95S THUNDER HX  91
GREAT FALLS MT LGT RAIN  79  43  27 NW10G30   30.14R
CHEYENNE WY    MOSUNNY   76  43  30 E5        30.28F
SCOTTSBLUFF NE SUNNY     86  43  22 VRB5      30.15F
OMAHA NE       PTSUNNY   83  57  41 E14       30.02F
DES MOINES IA  PTSUNNY   80  56  43 W7        30.04S
DAVENPORT IA   MOSUNNY   79  60  52 W6        30.05S
CHICAGO IL     MOSUNNY   82  53  36 W13       30.01S
EAU CLAIRE WI  MOSUNNY   78  57  48 W8        29.98S
LA CROSSE WI   SUNNY     80  57  45 NW6       29.99F
$$

  *****  SOME NATIONAL WEATHER *****

CITY           SKY/WX    TMP DP  RH WIND       PRES   REMARKS
LA GUARDIA NY  MOSUNNY   80  61  52 S10G24    30.09R
RALEIGH NC     CLOUDY    78  67  68 E3        30.13R
ATLANTA GA     LGT RAIN  72  69  90 NE15      30.06S
NEW ORLEANS LA PTSUNNY   88  62  41 N8        29.99S
OKLAHOMA CITY  PTSUNNY   77  67  71 NE13      30.05F
ALBUQUERQUE NM CLOUDY    81  55  40 SW9       30.18F
SALT LAKE CITY CLOUDY    84  52  33 NW9       30.11F
LOS ANGELES CA MOSUNNY   74  61  63 W15       29.88F
BOISE ID       PTSUNNY   95  45  17 NW8       30.01F HX  91
SEATTLE WA     MOSUNNY   87  50  27 NW12      30.06F
$$

*** WEATHER ACROSS MANITOBA...SASKATCHEWAN AND ONTARIO ***
                ***ONTARIO***

CITY           SKY/WX    TMP DP  RH WIND       PRES   REMARKS
GERALDTON      CLOUDY    57  55  94 W5        29.94R
THUNDER BAY    MOSUNNY   77  46  33 NW12      29.91R
SIOUX LOOKOUT  PTSUNNY   72  52  49 N3        29.98S
TORONTO        MOSUNNY   75  54  46 W17       30.02R
BIG TROUT LK   CLOUDY    64  48  55 NE8       29.96R
PICKLE LAKE    CLOUDY    66  48  52 N5        29.98R
DRYDEN         SUNNY     73  46  38 NW9       30.00R
KENORA         MOSUNNY   75  52  43 NW7       30.01F
$$
                *** MANITOBA***

CITY           SKY/WX    TMP DP  RH WIND       PRES   REMARKS
BRANDON        CLOUDY    77  59  53 NE8       30.05S
DAUPHIN        MOSUNNY   75  63  64 NE6       30.04S
ISLAND LAKE    MOSUNNY   75  48  38 NE2       30.04F
PILOT MOUND      N/A    N/A N/A N/A N5          N/A
THE PAS        CLOUDY    84  57  39 N6        29.99S
THOMPSON       PTSUNNY   81  55  41 S5        30.01F
WINNIPEG       MOSUNNY   81  64  57 NW6       30.00F
LYNN LAKE      PTSUNNY   73  64  73 E12       30.02R
CHURCHILL      SUNNY     75  50  41 SE8       30.04F
GILLAM         CLOUDY    73  50  43 CALM      30.04F
$$
                ***SASKATCHEWAN***

CITY           SKY/WX    TMP DP  RH WIND       PRES   REMARKS
ESTEVAN        PTSUNNY   81  59  47 SE8       30.05F
KINDERSLEY     PTSUNNY   79  68  69 E9G17     30.04S
LLOYDMINSTER   PTSUNNY   82  59  44 E8        30.07F
PRINCE ALBERT  NOT AVBL
REGINA         MOSUNNY   82  61  47 SE12      30.03F
YORKTON        NOT AVBL
N. BATTLEFORD    N/A     82  64  54 E5        30.07F
LA RONGE       PTSUNNY   82  57  42 S7        30.03F
SASKATOON      PTSUNNY   82  59  44 E7        30.07R
SWIFT CURRENT  SUNNY     88  54  31 NE13G18   30.00S
$$
NOTE: THESE ARE AUTOMATED STATIONS WITH LIMITED QUALITY CONTROL
      "FAIR" INDICATES FEW OR NO CLOUDS BELOW 12,000 FEET WITH NO
      SIGNIFICANT WEATHER AND/OR OBSTRUCTIONS TO VISIBILITY.
      SKY/WX - SKY CONDITION AND SIGNIFICANT WEATHER.
      TMP - AIR TEMPERATURE.    DP   - DEWPOINT TEMPERATURE.
      RH  - RELATIVE HUMIDITY.  PRES - PRESSURE.
      HX  - HEAT INDEX.         WCI  - WIND CHILL INDEX.
$



USA.gov is the U.S. government's official web portal to all federal, state and local government web resources and services.